Tracking 19193 objects as of 24-Jun-2018
HD Live streaming from Space Station
objects crossing your sky now

FENGYUN 1C DEB

Track FENGYUN 1C DEB now!
10-day predictions


NORAD ID: 36269
Int'l Code: 1999-025DWW
Perigee: 651.0 km
Apogee: 1,026.5 km
Inclination: 99.2 °
Period: 101.5 minutes
Semi major axis: 7209 km
RCS: 0.0019 m2 (small)
Launch date: May 10, 1999
Source: People's Republic of China (PRC)
Launch site: Taiyaun Space Center, China (TSC)

Note: This is SATELLITE DEBRIS
aabbcc
Your satellite tracking list
Your tracking list is empty




NASA's NSSDC Master Catalog

Two Line Element Set (TLE):
1 36269U 99025DWW 18174.91046457 +.00000210 +00000-0 +91046-4 0  9995
2 36269 099.2228 341.4749 0260462 129.5953 232.8536 14.18149207489799
Source of the keplerian elements: AFSPC